Location: Remedello Sotto
(45.2500°N, 10.3667°E)
Time: 21:28:14
(UTC+00:00)

Cosmos 2333 Rocket - Pass Details

Date: 03 February 2023
Orbit: 837 x 864 km, 70.8° (Epoch: 23 March)

Event Time Altitude Azimuth Distance (km) Brightness Sun altitude
Rises 18:10:47 0° 196° (SSW) 3,376 5.6 -18.3°
Reaches altitude 10° 18:13:13 10° 193° (SSW) 2,447 4.8 -18.7°
Maximum altitude 18:18:47 67° 112° (ESE) 910 2.1 -19.7°
Enters shadow 18:22:25 23° 35° (NE) 1,751 3.5 -20.3°
